Location: Auckland
(36.8670°S, 174.7670°E)
Time: 02:54:24
(UTC+13:00)

Cosmos 2315 Rocket - Pass Details

Date: 24 January 2019
Orbit: 966 x 1001 km, 82.9° (Epoch: 17 February)

Event Time Altitude Azimuth Distance (km) Brightness Sun altitude
Rises 21:57:41 0° 187° (S) 3,742 7.8 -14.4°
Reaches altitude 10° 22:00:15 10° 186° (S) 2,781 7.0 -14.8°
Maximum altitude 22:06:39 88° 99° (E) 998 4.0 -15.8°
Enters shadow 22:12:15 14° 6° (N) 2,473 5.7 -16.6°
